Location: Albany
(35.0000°S, 118.0000°E)
Time: 23:21:58
(UTC-04:00)

Cosmos 1346 Rocket - Visible Passes

Search period start: 03 July 2015 00:00
Search period end: 13 July 2015 00:00
Orbit: 526 x 564 km, 81.2° (Epoch: 03 July)

Date Brightness Start Highest point End Pass type
(mag) Time Alt. Az. Time Alt. Az. Time Alt. Az.
06 Jul6.007:20:03N07:20:03N07:09:18Svisible
07 Jul 2.9 07:05:10 10° SSW 07:09:10 74° W 07:13:04 10° N visible
08 Jul 3.0 06:59:20 10° SSW 07:03:18 68° W 07:07:11 10° N visible
09 Jul 3.2 06:53:30 10° SSW 06:57:26 62° W 07:01:18 10° N visible
10 Jul 3.4 06:47:40 10° SSW 06:51:34 57° W 06:55:24 10° N visible
11 Jul 3.6 06:41:50 10° SSW 06:45:43 52° W 06:49:31 10° N visible
12 Jul 3.8 06:36:01 10° SSW 06:39:51 48° W 06:43:36 10° N visible
